User: anonymous   Login
Location: Newark
(30.1000°N, 109.4667°E)
Time: 13:24:36
(UTC+00:00)
Language:

Courier 1B - Orbit

View from above orbital plane
View from above orbital plane
View from above satellite
View from above satellite

Ground track
Ground track

The orbit data is extracted from the following two-line orbital elements,

1    58U 60013A   20051.89799293 +.00000111 +00000-0 +35406-4 0  9992
2    58 028.3288 331.0208 0165057 176.0196 184.1694 13.46321089922763
Epoch (UTC): 20 February 2020 21:33:06
Eccentricity: 0.0165057
inclination: 28.3288°
perigee height: 962 km
apogee height: 1209 km
right ascension of ascending node: 331.0208°
argument of perigee: 176.0196°
revolutions per day: 13.46321089
mean anomaly at epoch: 184.1694°
orbit number at epoch: 92276

The dashed part of the orbit path shows where the satellite is in the earth's shadow,  

DLR